{"data":{"norad_id":45747,"epoch":"2026-05-24T13:44:32.739360Z","epoch_age_seconds":126173,"freshness":"FRESH","line1":"1 45747U 20038T   26144.57260115  .00005254  00000+0  20224-3 0  9992","line2":"2 45747  53.0765 210.8089 0003237 119.6025 240.5297 15.28017346328281","mean_motion":15.28017346,"eccentricity":0.0003237,"inclination_deg":53.0765,"raan_deg":210.8089,"arg_perigee_deg":119.6025,"mean_anomaly_deg":240.5297,"bstar":0.00020224,"rev_number":32828,"period_min":94.239767877609,"perigee_km":479.51929501134,"apogee_km":483.96037927571,"semimajor_km":6859.8768371435,"source":"CELESTRAK","updated_at":"2026-05-25T13:38:16.433598Z"}}